| time (UTC) | temp C | wind direction | speed KPH | gust KPH | rain 1hr cm | rain 24hr cm | rain mn cm | humidity % | barometer mb |
| 20260510192859 | 21 | 344 | 8.0 | 11.3 | 0.00 | 0.00 | 0.00 | 58 | 1015.6 |
| 20260510192354 | 21 | 313 | 3.2 | 9.7 | 0.00 | 0.00 | 0.00 | 63 | 1015.6 |
| 20260510191850 | 21 | 306 | 9.7 | 14.5 | 0.00 | 0.00 | 0.00 | 59 | 1015.6 |
| 20260510191347 | 21 | 322 | 8.0 | 11.3 | 0.00 | 0.00 | 0.00 | 64 | 1015.5 |
| 20260510190844 | 20 | 343 | 4.8 | 12.9 | 0.00 | 0.00 | 0.00 | 65 | 1015.5 |
| 20260510190342 | 20 | 343 | 6.4 | 6.4 | 0.00 | 0.00 | 0.00 | 68 | 1015.7 |
| 20260510185838 | 19 | 333 | 3.2 | 6.4 | 0.00 | 0.00 | 0.00 | 68 | 1015.7 |
| 20260510185336 | 19 | 314 | 3.2 | 6.4 | 0.00 | 0.00 | 0.00 | 68 | 1015.7 |
| 20260510184833 | 19 | 341 | 4.8 | 12.9 | 0.00 | 0.00 | 0.00 | 68 | 1015.8 |
| 20260510184330 | 20 | 34 | 6.4 | 9.7 | 0.00 | 0.00 | 0.00 | 67 | 1015.7 |
| 20260510183829 | 21 | 14 | 6.4 | 11.3 | 0.00 | 0.00 | 0.00 | 66 | 1015.7 |
| 20260510183325 | 20 | 338 | 4.8 | 9.7 | 0.00 | 0.00 | 0.00 | 68 | 1015.7 |
| 20260510182821 | 20 | 6 | 4.8 | 11.3 | 0.00 | 0.00 | 0.00 | 69 | 1015.7 |
| 20260510182318 | 19 | 306 | 4.8 | 6.4 | 0.00 | 0.00 | 0.00 | 74 | 1015.6 |
| 20260510181814 | 18 | 19 | 4.8 | 11.3 | 0.00 | 0.00 | 0.00 | 73 | 1015.4 |
| 20260510181312 | 19 | 26 | 6.4 | 12.9 | 0.00 | 0.00 | 0.00 | 75 | 1015.6 |
| 20260510180807 | 18 | 322 | 3.2 | 4.8 | 0.00 | 0.00 | 0.00 | 74 | 1015.2 |
| 20260510180305 | 18 | 336 | 4.8 | 9.7 | 0.00 | 0.00 | 0.00 | 75 | 1015.6 |
| 20260510175801 | 18 | 8 | 1.6 | 6.4 | 0.00 | 0.00 | 0.00 | 76 | 1015.3 |
| 20260510175257 | 18 | 332 | 4.8 | 9.7 | 0.00 | 0.00 | 0.00 | 74 | 1015.5 |
| 20260510174754 | 18 | 2 | 0.0 | 4.8 | 0.00 | 0.00 | 0.00 | 75 | 1015.6 |
| 20260510174251 | 19 | 333 | 3.2 | 9.7 | 0.00 | 0.00 | 0.00 | 74 | 1015.5 |
| 20260510173748 | 20 | 338 | 6.4 | 6.4 | 0.00 | 0.00 | 0.00 | 73 | 1015.4 |
| 20260510173243 | 20 | 9 | 4.8 | 9.7 | 0.00 | 0.00 | 0.00 | 72 | 1015.4 |
| 20260510172739 | 20 | 309 | 3.2 | 4.8 | 0.00 | 0.00 | 0.00 | 73 | 1015.2 |
| 20260510172235 | 20 | 92 | 1.6 | 6.4 | 0.00 | 0.00 | 0.00 | 75 | 1015.3 |
| 20260510171732 | 20 | 330 | 6.4 | 12.9 | 0.00 | 0.00 | 0.00 | 73 | 1015.4 |
| 20260510171230 | 20 | 328 | 6.4 | 9.7 | 0.00 | 0.00 | 0.00 | 74 | 1015.2 |
| 20260510170727 | 20 | 315 | 3.2 | 6.4 | 0.00 | 0.00 | 0.00 | 74 | 1015.1 |
| 20260510170222 | 20 | 309 | 6.4 | 6.4 | 0.00 | 0.00 | 0.00 | 75 | 1015.3 |
| 20260510165718 | 20 | 308 | 1.6 | 6.4 | 0.00 | 0.00 | 0.00 | 73 | 1015.3 |
| 20260510165214 | 20 | 312 | 3.2 | 9.7 | 0.00 | 0.00 | 0.00 | 75 | 1015.3 |
| 20260510164712 | 20 | 256 | 8.0 | 9.7 | 0.00 | 0.00 | 0.00 | 72 | 1015.1 |
| 20260510164209 | 19 | 338 | 3.2 | 6.4 | 0.00 | 0.00 | 0.00 | 76 | 1015.2 |
| 20260510163704 | 18 | 29 | 3.2 | 3.2 | 0.00 | 0.00 | 0.00 | 76 | 1015.2 |
| 20260510163200 | 18 | 0 | 3.2 | 4.8 | 0.00 | 0.00 | 0.00 | 74 | 1015.1 |
| 20260510162700 | 19 | 317 | 4.8 | 6.4 | 0.00 | 0.00 | 0.00 | 71 | 1015.1 |
| 20260510162157 | 19 | 324 | 0.0 | 1.6 | 0.00 | 0.00 | 0.00 | 73 | 1015.2 |
| 20260510161652 | 19 | 6 | 3.2 | 4.8 | 0.00 | 0.00 | 0.00 | 71 | 1015.2 |
| 20260510161149 | 20 | 262 | 1.6 | 4.8 | 0.00 | 0.00 | 0.00 | 69 | 1015.2 |
| 20260510160646 | 20 | 327 | 1.6 | 4.8 | 0.00 | 0.00 | 0.00 | 70 | 1015.0 |
| 20260510160142 | 19 | 238 | 1.6 | 3.2 | 0.00 | 0.00 | 0.00 | 71 | 1014.8 |
| 20260510155638 | 18 | 357 | 4.8 | 4.8 | 0.00 | 0.00 | 0.00 | 73 | 1015.0 |
| 20260510155134 | 18 | 328 | 3.2 | 4.8 | 0.00 | 0.00 | 0.00 | 74 | 1014.9 |
| 20260510154630 | 18 | 318 | 3.2 | 4.8 | 0.00 | 0.00 | 0.00 | 76 | 1015.0 |
| 20260510154125 | 18 | 332 | 4.8 | 6.4 | 0.00 | 0.00 | 0.00 | 75 | 1014.7 |
| 20260510153621 | 18 | 3 | 3.2 | 4.8 | 0.00 | 0.00 | 0.00 | 76 | 1014.7 |
| 20260510153117 | 18 | 336 | 0.0 | 3.2 | 0.00 | 0.00 | 0.00 | 76 | 1014.7 |
| 20260510152614 | 18 | 1 | 0.0 | 4.8 | 0.00 | 0.00 | 0.00 | 76 | 1014.4 |
| 20260510152110 | 17 | 315 | 1.6 | 3.2 | 0.00 | 0.00 | 0.00 | 77 | 1014.6 |
| 20260510151607 | 17 | 329 | 3.2 | 4.8 | 0.00 | 0.00 | 0.00 | 77 | 1014.7 |
| 20260510151105 | 17 | 344 | 1.6 | 3.2 | 0.00 | 0.00 | 0.00 | 77 | 1014.7 |
| 20260510150600 | 17 | 352 | 0.0 | 1.6 | 0.00 | 0.00 | 0.00 | 78 | 1014.5 |
| 20260510150055 | 17 | 20 | 0.0 | 6.4 | 0.00 | 0.00 | 0.00 | 76 | 1014.3 |
| 20260510145553 | 17 | 358 | 0.0 | 1.6 | 0.00 | 0.00 | 0.00 | 78 | 1014.2 |
| 20260510145049 | 17 | 6 | 0.0 | 1.6 | 0.00 | 0.00 | 0.00 | 78 | 1014.3 |
| 20260510144546 | 17 | 34 | 1.6 | 1.6 | 0.00 | 0.00 | 0.00 | 78 | 1014.1 |
| 20260510144042 | 17 | 33 | 0.0 | 3.2 | 0.00 | 0.00 | 0.00 | 74 | 1014.1 |
| 20260510143537 | 18 | 4 | 0.0 | 1.6 | 0.00 | 0.00 | 0.00 | 74 | 1014.4 |
| 20260510143034 | 18 | 332 | 4.8 | 6.4 | 0.00 | 0.00 | 0.00 | 73 | 1014.7 |
| 20260510142530 | 18 | 326 | 3.2 | 3.2 | 0.00 | 0.00 | 0.00 | 72 | 1014.7 |
| 20260510142027 | 19 | 155 | 1.6 | 3.2 | 0.00 | 0.00 | 0.00 | 71 | 1014.6 |
| 20260510141524 | 19 | 324 | 1.6 | 3.2 | 0.00 | 0.00 | 0.00 | 71 | 1014.7 |
| 20260510141021 | 18 | 244 | 1.6 | 9.7 | 0.00 | 0.00 | 0.00 | 71 | 1015.0 |
| 20260510140517 | 18 | 127 | 3.2 | 4.8 | 0.00 | 0.00 | 0.00 | 70 | 1014.7 |
| 20260510140011 | 19 | 219 | 1.6 | 3.2 | 0.00 | 0.00 | 0.00 | 70 | 1014.7 |
| 20260510135507 | 18 | 263 | 0.0 | 3.2 | 0.00 | 0.00 | 0.00 | 70 | 1014.7 |
| 20260510135004 | 18 | 262 | 1.6 | 4.8 | 0.00 | 0.00 | 0.00 | 71 | 1014.8 |
| 20260510134501 | 18 | 315 | 4.8 | 11.3 | 0.00 | 0.00 | 0.00 | 73 | 1014.5 |
| 20260510133958 | 17 | 166 | 6.4 | 6.4 | 0.00 | 0.00 | 0.00 | 74 | 1014.4 |
| 20260510133453 | 18 | 134 | 3.2 | 3.2 | 0.00 | 0.00 | 0.00 | 75 | 1014.2 |
| 20260510132949 | 17 | 132 | 1.6 | 3.2 | 0.00 | 0.00 | 0.00 | 76 | 1014.3 |
| 20260510132447 | 17 | 215 | 1.6 | 4.8 | 0.00 | 0.00 | 0.00 | 77 | 1014.3 |
| 20260510131943 | 17 | 209 | 3.2 | 3.2 | 0.00 | 0.00 | 0.00 | 78 | 1014.2 |
| 20260510131441 | 17 | 144 | 0.0 | 1.6 | 0.00 | 0.00 | 0.00 | 79 | 1013.9 |
| 20260510130938 | 17 | 145 | 1.6 | 1.6 | 0.00 | 0.00 | 0.00 | 79 | 1013.7 |
| 20260510130434 | 17 | 143 | 1.6 | 3.2 | 0.00 | 0.00 | 0.00 | 78 | 1013.7 |
| 20260510125932 | 17 | 140 | 1.6 | 1.6 | 0.00 | 0.00 | 0.00 | 78 | 1013.7 |
| 20260510125427 | 17 | 145 | 3.2 | 3.2 | 0.00 | 0.00 | 0.00 | 79 | 1013.8 |
| 20260510124925 | 17 | 107 | 0.0 | 1.6 | 0.00 | 0.00 | 0.00 | 81 | 1013.7 |
| 20260510124421 | 16 | 108 | 1.6 | 1.6 | 0.00 | 0.00 | 0.00 | 79 | 1013.7 |
| 20260510123918 | 16 | 106 | 0.0 | 1.6 | 0.00 | 0.00 | 0.00 | 81 | 1013.6 |
| 20260510123413 | 16 | 106 | 0.0 | 0.0 | 0.00 | 0.00 | 0.00 | 83 | 1013.6 |
| 20260510122910 | 15 | 105 | 1.6 | 1.6 | 0.00 | 0.00 | 0.00 | 85 | 1013.3 |
| 20260510122405 | 15 | 105 | 0.0 | 1.6 | 0.00 | 0.00 | 0.00 | 86 | 1013.3 |
| 20260510121901 | 15 | 106 | 1.6 | 1.6 | 0.00 | 0.00 | 0.00 | 85 | 1013.2 |
| 20260510121359 | 15 | 101 | 1.6 | 3.2 | 0.00 | 0.00 | 0.00 | 86 | 1013.4 |
| 20260510120856 | 15 | 112 | 1.6 | 1.6 | 0.00 | 0.00 | 0.00 | 87 | 1013.4 |
| 20260510120354 | 15 | 97 | 1.6 | 1.6 | 0.00 | 0.00 | 0.00 | 87 | 1013.3 |
| 20260510115849 | 14 | 97 | 1.6 | 1.6 | 0.00 | 0.00 | 0.00 | 91 | 1013.2 |
| 20260510115346 | 13 | 97 | 1.6 | 3.2 | 0.00 | 0.00 | 0.00 | 91 | 1013.1 |
| 20260510114842 | 13 | 112 | 1.6 | 3.2 | 0.00 | 0.00 | 0.00 | 93 | 1013.0 |
| 20260510114340 | 13 | 113 | 1.6 | 3.2 | 0.00 | 0.00 | 0.00 | 97 | 1013.1 |
| 20260510113839 | 12 | 136 | 1.6 | 1.6 | 0.00 | 0.00 | 0.00 | 99 | 1012.7 |
| 20260510113336 | 12 | 136 | 0.0 | 3.2 | 0.00 | 0.00 | 0.00 | 99 | 1012.7 |
| 20260510112833 | 11 | 136 | 0.0 | 1.6 | 0.00 | 0.00 | 0.00 | 99 | 1012.7 |
| 20260510112330 | 11 | 136 | 0.0 | 0.0 | 0.00 | 0.00 | 0.00 | 99 | 1012.6 |
| 20260510111826 | 11 | 136 | 0.0 | 0.0 | 0.00 | 0.00 | 0.00 | 99 | 1012.6 |
| 20260510111322 | 11 | 136 | 0.0 | 0.0 | 0.00 | 0.00 | 0.00 | 99 | 1012.3 |
| 20260510110817 | 11 | 136 | 1.6 | 1.6 | 0.00 | 0.00 | 0.00 | 99 | 1012.5 |
| 20260510110315 | 11 | 137 | 0.0 | 0.0 | 0.00 | 0.00 | 0.00 | 99 | 1012.1 |
| 20260510105810 | 11 | 137 | 0.0 | 1.6 | 0.00 | 0.00 | 0.00 | 99 | 1012.0 |
| 20260510105309 | 11 | 137 | 0.0 | 0.0 | 0.00 | 0.00 | 0.00 | 99 | 1012.0 |
| 20260510104806 | 11 | 137 | 0.0 | 1.6 | 0.00 | 0.00 | 0.00 | 99 | 1011.9 |
| 20260510104304 | 11 | 137 | 1.6 | 1.6 | 0.00 | 0.00 | 0.00 | 99 | 1011.6 |
| 20260510103800 | 11 | 137 | 0.0 | 1.6 | 0.00 | 0.00 | 0.00 | 99 | 1011.9 |
| 20260510103257 | 11 | 137 | 0.0 | 1.6 | 0.00 | 0.00 | 0.00 | 99 | 1011.9 |
| 20260510102752 | 11 | 131 | 1.6 | 3.2 | 0.00 | 0.00 | 0.00 | 99 | 1011.5 |
| 20260510102248 | 10 | 122 | 1.6 | 1.6 | 0.00 | 0.00 | 0.00 | 99 | 1011.6 |
| 20260510101746 | 10 | 122 | 1.6 | 3.2 | 0.00 | 0.00 | 0.00 | 99 | 1011.5 |
| 20260510101244 | 10 | 123 | 3.2 | 3.2 | 0.00 | 0.00 | 0.00 | 99 | 1011.4 |
| 20260510100740 | 10 | 122 | 0.0 | 1.6 | 0.00 | 0.00 | 0.00 | 99 | 1011.4 |
| 20260510100238 | 10 | 122 | 0.0 | 0.0 | 0.00 | 0.00 | 0.00 | 99 | 1011.4 |
| 20260510095733 | 10 | 122 | 0.0 | 0.0 | 0.00 | 0.00 | 0.00 | 98 | 1011.3 |
| 20260510095229 | 10 | 122 | 0.0 | 1.6 | 0.00 | 0.00 | 0.00 | 98 | 1011.2 |
| 20260510094727 | 10 | 122 | 0.0 | 1.6 | 0.00 | 0.00 | 0.00 | 98 | 1011.2 |
| 20260510094223 | 10 | 122 | 1.6 | 1.6 | 0.00 | 0.00 | 0.00 | 98 | 1011.0 |
| 20260510093719 | 10 | 122 | 3.2 | 3.2 | 0.00 | 0.00 | 0.00 | 98 | 1011.0 |
| 20260510093217 | 11 | 95 | 1.6 | 1.6 | 0.00 | 0.00 | 0.00 | 98 | 1011.0 |
| 20260510092713 | 11 | 94 | 1.6 | 3.2 | 0.00 | 0.00 | 0.00 | 98 | 1011.0 |
| 20260510092209 | 10 | 6 | 1.6 | 1.6 | 0.00 | 0.00 | 0.00 | 98 | 1010.8 |
| 20260510091704 | 10 | 5 | 0.0 | 1.6 | 0.00 | 0.00 | 0.00 | 98 | 1010.9 |
| 20260510091201 | 10 | 5 | 0.0 | 1.6 | 0.00 | 0.00 | 0.00 | 98 | 1010.9 |
| 20260510090658 | 10 | 316 | 0.0 | 0.0 | 0.00 | 0.00 | 0.00 | 97 | 1010.8 |
| 20260510090154 | 10 | 316 | 0.0 | 1.6 | 0.00 | 0.00 | 0.00 | 97 | 1010.8 |
| 20260510085649 | 10 | 82 | 1.6 | 1.6 | 0.00 | 0.00 | 0.00 | 97 | 1010.5 |
| 20260510085144 | 11 | 82 | 0.0 | 0.0 | 0.00 | 0.00 | 0.00 | 97 | 1010.6 |
| 20260510084641 | 11 | 82 | 0.0 | 0.0 | 0.00 | 0.00 | 0.00 | 97 | 1010.7 |
| 20260510084137 | 11 | 83 | 1.6 | 1.6 | 0.00 | 0.00 | 0.00 | 97 | 1010.6 |
| 20260510083634 | 11 | 82 | 0.0 | 0.0 | 0.00 | 0.00 | 0.00 | 97 | 1010.5 |
| 20260510083131 | 11 | 83 | 0.0 | 0.0 | 0.00 | 0.00 | 0.00 | 97 | 1010.4 |
| 20260510082627 | 11 | 82 | 0.0 | 1.6 | 0.00 | 0.00 | 0.00 | 96 | 1010.5 |
| 20260510082123 | 11 | 82 | 0.0 | 0.0 | 0.00 | 0.00 | 0.00 | 96 | 1010.4 |
| 20260510081623 | 11 | 82 | 0.0 | 1.6 | 0.00 | 0.00 | 0.00 | 96 | 1010.5 |
| 20260510081119 | 11 | 82 | 0.0 | 0.0 | 0.00 | 0.00 | 0.00 | 95 | 1010.4 |
| 20260510080614 | 11 | 82 | 0.0 | 0.0 | 0.00 | 0.00 | 0.00 | 95 | 1010.4 |
| 20260510080110 | 11 | 82 | 0.0 | 1.6 | 0.00 | 0.00 | 0.00 | 94 | 1010.4 |
| 20260510075602 | 11 | 82 | 0.0 | 0.0 | 0.00 | 0.00 | 0.00 | 94 | 1010.5 |
| 20260510075059 | 11 | 82 | 0.0 | 0.0 | 0.00 | 0.00 | 0.00 | 93 | 1010.3 |
| 20260510074556 | 11 | 82 | 1.6 | 1.6 | 0.00 | 0.00 | 0.00 | 93 | 1010.3 |
| 20260510074051 | 12 | 82 | 0.0 | 0.0 | 0.00 | 0.00 | 0.00 | 92 | 1010.2 |
| 20260510073548 | 12 | 82 | 0.0 | 0.0 | 0.00 | 0.00 | 0.00 | 89 | 1010.2 |
| 20260510073045 | 13 | 82 | 0.0 | 0.0 | 0.00 | 0.00 | 0.00 | 88 | 1010.2 |
| 20260510072542 | 13 | 83 | 0.0 | 1.6 | 0.00 | 0.00 | 0.00 | 88 | 1010.3 |
| 20260510072037 | 13 | 83 | 3.2 | 3.2 | 0.00 | 0.00 | 0.00 | 89 | 1010.2 |
| 20260510071533 | 13 | 82 | 0.0 | 1.6 | 0.00 | 0.00 | 0.00 | 88 | 1010.4 |
| 20260510071032 | 13 | 82 | 0.0 | 0.0 | 0.00 | 0.00 | 0.00 | 85 | 1010.1 |
| 20260510070528 | 14 | 83 | 0.0 | 1.6 | 0.00 | 0.00 | 0.00 | 84 | 1010.1 |
| 20260510070025 | 14 | 79 | 1.6 | 3.2 | 0.00 | 0.00 | 0.00 | 84 | 1010.3 |
| 20260510065521 | 14 | 85 | 1.6 | 3.2 | 0.00 | 0.00 | 0.00 | 84 | 1010.3 |
| 20260510065017 | 14 | 85 | 1.6 | 3.2 | 0.00 | 0.00 | 0.00 | 84 | 1010.1 |
| 20260510064514 | 15 | 85 | 0.0 | 1.6 | 0.00 | 0.00 | 0.00 | 83 | 1010.3 |
| 20260510064011 | 15 | 86 | 1.6 | 3.2 | 0.00 | 0.00 | 0.00 | 83 | 1010.2 |
| 20260510063508 | 15 | 87 | 3.2 | 3.2 | 0.00 | 0.00 | 0.00 | 83 | 1010.4 |
| 20260510063005 | 15 | 93 | 3.2 | 4.8 | 0.00 | 0.00 | 0.00 | 82 | 1010.2 |
| 20260510062501 | 15 | 118 | 3.2 | 3.2 | 0.00 | 0.00 | 0.00 | 82 | 1010.1 |
| 20260510061956 | 15 | 98 | 3.2 | 4.8 | 0.00 | 0.00 | 0.00 | 82 | 1010.3 |
| 20260510061453 | 15 | 114 | 3.2 | 4.8 | 0.00 | 0.00 | 0.00 | 82 | 1010.1 |
| 20260510060949 | 15 | 93 | 3.2 | 4.8 | 0.00 | 0.00 | 0.00 | 81 | 1010.2 |
| 20260510060446 | 15 | 101 | 3.2 | 4.8 | 0.00 | 0.00 | 0.00 | 82 | 1010.5 |
| 20260510055942 | 15 | 104 | 3.2 | 4.8 | 0.00 | 0.00 | 0.00 | 82 | 1010.3 |
| 20260510055438 | 15 | 112 | 3.2 | 4.8 | 0.00 | 0.00 | 0.00 | 82 | 1010.3 |
| 20260510054937 | 15 | 116 | 3.2 | 3.2 | 0.00 | 0.00 | 0.00 | 81 | 1010.4 |
| 20260510054432 | 15 | 100 | 3.2 | 4.8 | 0.00 | 0.00 | 0.00 | 82 | 1010.3 |
| 20260510053927 | 15 | 110 | 3.2 | 4.8 | 0.00 | 0.00 | 0.00 | 81 | 1010.5 |
| 20260510053422 | 15 | 104 | 1.6 | 4.8 | 0.00 | 0.00 | 0.00 | 82 | 1010.4 |
| 20260510052919 | 15 | 125 | 3.2 | 3.2 | 0.00 | 0.00 | 0.00 | 81 | 1010.5 |
| 20260510052415 | 15 | 109 | 3.2 | 4.8 | 0.00 | 0.00 | 0.00 | 81 | 1010.4 |
| 20260510051911 | 15 | 107 | 3.2 | 4.8 | 0.00 | 0.00 | 0.00 | 81 | 1010.4 |
| 20260510051408 | 15 | 104 | 4.8 | 4.8 | 0.00 | 0.00 | 0.00 | 81 | 1010.6 |
| 20260510050904 | 15 | 106 | 3.2 | 4.8 | 0.00 | 0.00 | 0.00 | 80 | 1010.6 |
| 20260510050401 | 15 | 94 | 3.2 | 4.8 | 0.00 | 0.00 | 0.00 | 80 | 1010.5 |
| 20260510045858 | 15 | 112 | 3.2 | 4.8 | 0.00 | 0.00 | 0.00 | 80 | 1010.6 |
| 20260510045355 | 16 | 109 | 4.8 | 4.8 | 0.00 | 0.00 | 0.00 | 80 | 1010.6 |
| 20260510044852 | 16 | 104 | 1.6 | 3.2 | 0.00 | 0.00 | 0.00 | 79 | 1010.7 |
| 20260510044349 | 16 | 149 | 3.2 | 4.8 | 0.00 | 0.00 | 0.00 | 79 | 1010.7 |
| 20260510043845 | 16 | 103 | 3.2 | 4.8 | 0.00 | 0.00 | 0.00 | 79 | 1010.5 |
| 20260510043341 | 16 | 93 | 4.8 | 4.8 | 0.00 | 0.00 | 0.00 | 79 | 1010.4 |
| 20260510042839 | 16 | 78 | 3.2 | 3.2 | 0.00 | 0.00 | 0.00 | 79 | 1010.4 |
| 20260510042335 | 16 | 100 | 3.2 | 4.8 | 0.00 | 0.00 | 0.00 | 79 | 1010.5 |
| 20260510041831 | 16 | 100 | 3.2 | 3.2 | 0.00 | 0.00 | 0.00 | 79 | 1010.6 |
| 20260510041329 | 16 | 129 | 3.2 | 4.8 | 0.00 | 0.00 | 0.00 | 78 | 1010.8 |
| 20260510040826 | 16 | 114 | 3.2 | 4.8 | 0.00 | 0.00 | 0.00 | 78 | 1010.5 |
| 20260510040323 | 16 | 107 | 3.2 | 3.2 | 0.00 | 0.00 | 0.00 | 78 | 1010.7 |
| 20260510035818 | 16 | 118 | 4.8 | 6.4 | 0.00 | 0.00 | 0.00 | 78 | 1010.5 |
| 20260510035314 | 16 | 103 | 3.2 | 3.2 | 0.00 | 0.00 | 0.00 | 78 | 1010.8 |
| 20260510034810 | 16 | 149 | 1.6 | 4.8 | 0.00 | 0.00 | 0.00 | 78 | 1010.5 |
| 20260510034308 | 16 | 71 | 4.8 | 4.8 | 0.00 | 0.00 | 0.00 | 78 | 1010.7 |
| 20260510033804 | 16 | 98 | 3.2 | 3.2 | 0.00 | 0.00 | 0.00 | 77 | 1010.7 |
| 20260510033301 | 16 | 107 | 3.2 | 3.2 | 0.00 | 0.00 | 0.00 | 77 | 1010.7 |
| 20260510032757 | 16 | 106 | 3.2 | 6.4 | 0.00 | 0.00 | 0.00 | 77 | 1010.7 |
| 20260510032254 | 16 | 110 | 1.6 | 4.8 | 0.00 | 0.00 | 0.00 | 77 | 1010.7 |
| 20260510031750 | 16 | 59 | 3.2 | 4.8 | 0.00 | 0.00 | 0.00 | 76 | 1010.7 |
| 20260510031245 | 16 | 81 | 1.6 | 3.2 | 0.00 | 0.00 | 0.00 | 76 | 1010.7 |
| 20260510030745 | 16 | 112 | 1.6 | 3.2 | 0.00 | 0.00 | 0.00 | 76 | 1010.7 |
| 20260510030242 | 16 | 105 | 3.2 | 4.8 | 0.00 | 0.00 | 0.00 | 76 | 1010.6 |
| 20260510025739 | 16 | 91 | 3.2 | 4.8 | 0.00 | 0.00 | 0.00 | 76 | 1010.4 |
| 20260510025237 | 16 | 102 | 3.2 | 4.8 | 0.00 | 0.00 | 0.00 | 75 | 1010.4 |
| 20260510024733 | 16 | 88 | 3.2 | 4.8 | 0.00 | 0.00 | 0.00 | 75 | 1010.2 |
| 20260510024230 | 16 | 104 | 3.2 | 4.8 | 0.00 | 0.00 | 0.00 | 75 | 1010.3 |
| 20260510023726 | 17 | 92 | 3.2 | 3.2 | 0.00 | 0.00 | 0.00 | 75 | 1010.1 |
| 20260510023223 | 17 | 95 | 3.2 | 3.2 | 0.00 | 0.00 | 0.00 | 75 | 1010.1 |
| 20260510022719 | 17 | 104 | 1.6 | 3.2 | 0.00 | 0.00 | 0.00 | 75 | 1010.1 |
| 20260510022214 | 17 | 122 | 1.6 | 3.2 | 0.00 | 0.00 | 0.00 | 73 | 1010.0 |
| 20260510021709 | 17 | 82 | 3.2 | 4.8 | 0.00 | 0.00 | 0.00 | 73 | 1009.9 |
| 20260510021207 | 17 | 96 | 1.6 | 4.8 | 0.00 | 0.00 | 0.00 | 73 | 1010.0 |
| 20260510020702 | 17 | 112 | 3.2 | 4.8 | 0.00 | 0.00 | 0.00 | 73 | 1009.8 |
| 20260510020202 | 17 | 95 | 3.2 | 3.2 | 0.00 | 0.00 | 0.00 | 72 | 1009.9 |
| 20260510015658 | 17 | 145 | 6.4 | 9.7 | 0.00 | 0.00 | 0.00 | 72 | 1009.7 |
| 20260510015155 | 17 | 77 | 3.2 | 3.2 | 0.00 | 0.00 | 0.00 | 71 | 1009.8 |
| 20260510014655 | 17 | 80 | 0.0 | 9.7 | 0.00 | 0.00 | 0.00 | 71 | 1009.6 |
| 20260510014154 | 18 | 123 | 1.6 | 4.8 | 0.00 | 0.00 | 0.00 | 70 | 1009.6 |
| 20260510013654 | 18 | 83 | 1.6 | 6.4 | 0.00 | 0.00 | 0.00 | 70 | 1009.5 |
| 20260510013150 | 18 | 94 | 3.2 | 4.8 | 0.00 | 0.00 | 0.00 | 70 | 1009.5 |
| 20260510012649 | 17 | 131 | 1.6 | 3.2 | 0.00 | 0.00 | 0.00 | 70 | 1009.3 |
| 20260510012145 | 17 | 197 | 4.8 | 6.4 | 0.00 | 0.00 | 0.00 | 70 | 1009.2 |
| 20260510011640 | 18 | 102 | 1.6 | 3.2 | 0.00 | 0.00 | 0.00 | 70 | 1009.1 |
| 20260510011136 | 18 | 215 | 3.2 | 3.2 | 0.00 | 0.00 | 0.00 | 69 | 1008.8 |
| 20260510010632 | 18 | 95 | 1.6 | 3.2 | 0.00 | 0.00 | 0.00 | 69 | 1009.0 |
| 20260510010130 | 18 | 208 | 4.8 | 6.4 | 0.00 | 0.00 | 0.00 | 68 | 1009.0 |
| 20260510005625 | 18 | 99 | 0.0 | 3.2 | 0.00 | 0.00 | 0.00 | 67 | 1009.0 |
| 20260510005122 | 18 | 110 | 1.6 | 11.3 | 0.00 | 0.00 | 0.00 | 67 | 1008.9 |
| 20260510004621 | 18 | 109 | 0.0 | 4.8 | 0.00 | 0.00 | 0.00 | 68 | 1008.9 |
| 20260510004118 | 18 | 98 | 3.2 | 4.8 | 0.00 | 0.00 | 0.00 | 67 | 1008.8 |
| 20260510003615 | 18 | 133 | 6.4 | 6.4 | 0.00 | 0.00 | 0.00 | 66 | 1008.8 |
| 20260510003111 | 19 | 118 | 4.8 | 6.4 | 0.00 | 0.00 | 0.00 | 66 | 1008.6 |
| 20260510002606 | 19 | 98 | 3.2 | 4.8 | 0.00 | 0.00 | 0.00 | 65 | 1008.6 |
| 20260510002103 | 20 | 142 | 4.8 | 9.7 | 0.00 | 0.00 | 0.00 | 63 | 1008.4 |
| 20260510001600 | 20 | 161 | 1.6 | 4.8 | 0.00 | 0.00 | 0.00 | 63 | 1008.5 |
| 20260510001059 | 20 | 201 | 3.2 | 9.7 | 0.00 | 0.00 | 0.00 | 62 | 1008.3 |
| 20260510000554 | 20 | 132 | 3.2 | 6.4 | 0.00 | 0.00 | 0.00 | 62 | 1008.4 |
| 20260510000051 | 20 | 85 | 3.2 | 11.3 | 0.00 | 0.00 | 0.00 | 62 | 1008.2 |
| 20260509235547 | 20 | 158 | 1.6 | 6.4 | 0.00 | 0.00 | 0.00 | 62 | 1008.2 |
| 20260509235044 | 20 | 113 | 0.0 | 3.2 | 0.00 | 0.00 | 0.00 | 61 | 1008.1 |
| 20260509234540 | 20 | 146 | 4.8 | 9.7 | 0.00 | 0.00 | 0.00 | 60 | 1008.5 |
| 20260509234038 | 20 | 235 | 1.6 | 4.8 | 0.00 | 0.00 | 0.00 | 61 | 1008.2 |
| 20260509233535 | 20 | 124 | 6.4 | 14.5 | 0.00 | 0.00 | 0.00 | 60 | 1008.1 |
| 20260509233033 | 21 | 147 | 1.6 | 1.6 | 0.00 | 0.00 | 0.00 | 61 | 1008.2 |
| 20260509232529 | 21 | 203 | 4.8 | 9.7 | 0.00 | 0.00 | 0.00 | 58 | 1008.1 |
| 20260509232026 | 21 | 238 | 0.0 | 3.2 | 0.00 | 0.00 | 0.00 | 59 | 1008.1 |
| 20260509231522 | 21 | 230 | 1.6 | 3.2 | 0.00 | 0.00 | 0.00 | 59 | 1008.1 |
| 20260509231020 | 21 | 187 | 3.2 | 4.8 | 0.00 | 0.00 | 0.00 | 58 | 1008.0 |
| 20260509230517 | 21 | 213 | 0.0 | 6.4 | 0.00 | 0.00 | 0.00 | 59 | 1007.9 |
| 20260509230014 | 21 | 249 | 1.6 | 1.6 | 0.00 | 0.00 | 0.00 | 58 | 1008.2 |
| 20260509225509 | 22 | 223 | 0.0 | 4.8 | 0.00 | 0.00 | 0.00 | 55 | 1008.1 |
| 20260509225005 | 22 | 192 | 1.6 | 3.2 | 0.00 | 0.00 | 0.00 | 57 | 1008.1 |
| 20260509224500 | 22 | 239 | 1.6 | 6.4 | 0.00 | 0.00 | 0.00 | 54 | 1008.3 |
| 20260509223957 | 22 | 239 | 6.4 | 9.7 | 0.00 | 0.00 | 0.00 | 55 | 1008.3 |
| 20260509223454 | 22 | 275 | 6.4 | 6.4 | 0.00 | 0.00 | 0.00 | 54 | 1008.3 |
| 20260509222952 | 22 | 219 | 6.4 | 6.4 | 0.00 | 0.00 | 0.00 | 54 | 1008.4 |
| 20260509222447 | 22 | 122 | 3.2 | 4.8 | 0.00 | 0.00 | 0.00 | 57 | 1008.4 |
| 20260509221943 | 22 | 129 | 3.2 | 4.8 | 0.00 | 0.00 | 0.00 | 55 | 1008.3 |
| 20260509221440 | 22 | 199 | 4.8 | 9.7 | 0.00 | 0.00 | 0.00 | 56 | 1008.5 |
| 20260509220935 | 22 | 226 | 6.4 | 6.4 | 0.00 | 0.00 | 0.00 | 55 | 1008.3 |
| 20260509220432 | 22 | 205 | 3.2 | 6.4 | 0.00 | 0.00 | 0.00 | 56 | 1008.4 |
| 20260509215928 | 22 | 336 | 1.6 | 6.4 | 0.00 | 0.00 | 0.00 | 52 | 1008.4 |
| 20260509215423 | 22 | 128 | 0.0 | 12.9 | 0.00 | 0.00 | 0.00 | 53 | 1008.4 |
| 20260509214921 | 22 | 237 | 3.2 | 11.3 | 0.00 | 0.00 | 0.00 | 53 | 1008.5 |
| 20260509214418 | 23 | 251 | 4.8 | 9.7 | 0.00 | 0.00 | 0.00 | 52 | 1008.6 |
| 20260509213915 | 23 | 269 | 3.2 | 9.7 | 0.00 | 0.00 | 0.00 | 55 | 1008.5 |
| 20260509213416 | 22 | 215 | 4.8 | 9.7 | 0.00 | 0.00 | 0.00 | 54 | 1008.6 |
| 20260509212914 | 22 | 208 | 6.4 | 6.4 | 0.00 | 0.00 | 0.00 | 53 | 1008.4 |
| 20260509212411 | 23 | 340 | 6.4 | 14.5 | 0.00 | 0.00 | 0.00 | 56 | 1008.7 |
| 20260509211907 | 22 | 330 | 4.8 | 6.4 | 0.00 | 0.00 | 0.00 | 55 | 1008.5 |
| 20260509211403 | 22 | 244 | 9.7 | 12.9 | 0.00 | 0.00 | 0.00 | 54 | 1008.5 |
| 20260509210859 | 22 | 260 | 4.8 | 9.7 | 0.00 | 0.00 | 0.00 | 55 | 1008.5 |
| 20260509210357 | 22 | 182 | 6.4 | 11.3 | 0.00 | 0.00 | 0.00 | 54 | 1008.6 |
| 20260509205852 | 22 | 244 | 4.8 | 12.9 | 0.00 | 0.00 | 0.00 | 57 | 1008.5 |
| 20260509205346 | 22 | 148 | 0.0 | 14.5 | 0.00 | 0.00 | 0.00 | 57 | 1008.5 |
| 20260509204843 | 22 | 255 | 3.2 | 4.8 | 0.00 | 0.00 | 0.00 | 56 | 1008.5 |
| 20260509204339 | 22 | 251 | 3.2 | 6.4 | 0.00 | 0.00 | 0.00 | 58 | 1008.5 |
| 20260509203836 | 22 | 251 | 6.4 | 9.7 | 0.00 | 0.00 | 0.00 | 56 | 1008.7 |
| 20260509203333 | 22 | 224 | 1.6 | 3.2 | 0.00 | 0.00 | 0.00 | 61 | 1008.8 |
| 20260509202829 | 21 | 257 | 3.2 | 4.8 | 0.00 | 0.00 | 0.00 | 58 | 1008.9 |
| 20260509202326 | 22 | 305 | 4.8 | 6.4 | 0.00 | 0.00 | 0.00 | 57 | 1008.7 |
| 20260509201825 | 22 | 143 | 4.8 | 11.3 | 0.00 | 0.00 | 0.00 | 56 | 1008.8 |
| 20260509201322 | 21 | 216 | 6.4 | 9.7 | 0.00 | 0.00 | 0.00 | 60 | 1008.7 |
| 20260509200818 | 21 | 216 | 3.2 | 3.2 | 0.00 | 0.00 | 0.00 | 58 | 1008.9 |
| 20260509200314 | 20 | 210 | 4.8 | 6.4 | 0.00 | 0.00 | 0.00 | 60 | 1009.1 |
| 20260509195810 | 20 | 212 | 6.4 | 11.3 | 0.00 | 0.00 | 0.00 | 58 | 1009.1 |
| 20260509195306 | 20 | 252 | 3.2 | 9.7 | 0.00 | 0.00 | 0.00 | 60 | 1009.2 |
| 20260509194805 | 20 | 165 | 3.2 | 6.4 | 0.00 | 0.00 | 0.00 | 61 | 1009.2 |
| 20260509194301 | 20 | 172 | 3.2 | 4.8 | 0.00 | 0.00 | 0.00 | 62 | 1009.2 |
| 20260509193758 | 20 | 249 | 1.6 | 9.7 | 0.00 | 0.00 | 0.00 | 60 | 1009.2 |
| 20260509193258 | 21 | 244 | 4.8 | 9.7 | 0.00 | 0.00 | 0.00 | 59 | 1009.1 |